STARLINK-31689, 59567

Orbit data source: Space-Track

STARLINK-31689, 59567 is a payload satellite owned by SpaceX/Seattle (US) in LEO that was launched on Tue, 23 Apr 2024 UTC via an FALCON 9 launch vehicle from the Air Force Eastern Test Range (AFETR). Payload-class satellites include a variety of spacecraft equipped with specific instruments for various scientific and technological missions. These include communications satellites like Starlink; space stations such as the ISS; scientific satellites like the Hubble; Earth observation satellites from companies like Planet Labs, Umbra, and HawkEye 360; GPS; miniature CubeSats for education and research; and military/defense satellites.

Loading next visibility...
Identifier
59567, 2024-076D
Orbit
LEO
Last TLE update
13 hours ago
Origin
Manufacturer
SpaceX/Seattle
Mission
Operational spacecraft
Bus & Motor
STARLINK V2M, Unknown motor
Mass
730 kg wet, ~700 kg dry
Launch date (UTC)
2024-04-23 (1 year ago)
Launch vehicle
FALCON 9
Launch site
Air Force Eastern Test Range (AFETR)
Object type
Payload
Rocket body
Debris
Shape & HBR
Unknown
Radar Cross Section
Large (>1 m²)

Expand to show TLE details & history

TLE from 13 hours ago
0 STARLINK-31689
1 59567U 24076D   25128.74409049 -.00000596  00000-0 -12138-4 0  9997
2 59567  42.9969 287.8582 0001065 296.0502  64.0240 15.27567946 59900
Epoch: 2025-05-08T17:51Z
Definitive object data (Epoch: 2025-05-08T17:51:29.418Z)
Latitude
-0°
Longitude
153.17543°
Altitude
482.54 km
Speed
7.626 km/s
True Right ascension
19h 11m 25s
True Declination
0° 00' 00"
Sunlit
Object was in full shadow at TLE epoch
Visualization TLE readout
Latitude
41.65991°
Longitude
-101.4969°
Altitude
486.612 km
Speed
7.627 km/s
Apparent Right ascension
02h 36m 10s
Apparent Declination
2° 41' 49"
Sunlit
Object is in daylight
Visualization observer readout
Local Sidereal Time
15:00:44
Azimuth
9.018° NNE
Elevation
-47.016°
Doppler factor
1
Orbital elements
Apogee altitude
485.762 km
Perigee altitude
484.3 km
Semi-major axis
6,863.168 km
Eccentricity
0.0001065
Inclination
42.9969°
RAAN
287.8582°
Arg. of periapsis
296.0502°
True anomaly
64.03497°
Mean anomaly
64.024°
Eccentric anomaly
64.02949°
Mean motion
3.8173 °/min
BSTAR
-0.000012138
Orbital period
94.31 mins
Loading maneuver chart data...
Loading SW <> Apogee altitude chart data...
Loading historical data...
Loading historical data...
Loading historical data...
Loading historical data...
Loading historical data...
Loading historical data...
Loading historical data...

STARLINK-31689 Visibility forecast

Observer location: undefined°, undefined°

Span
Click to sort rows by Start time (UTC) header in descending order
Start Az.
Max El. time (UTC)
Max El. Az.
Max El.
End time (UTC)
End Az.
5 mins2025-05-09 14:30:50.088Z235.175° WSW2025-05-09 14:32:50.088Z143.204° SSE43.044°2025-05-09 14:35:50.088Z75.42° E
5 mins2025-05-09 16:09:50.088Z286.873° WNW2025-05-09 16:11:50.088Z358.287° N38.79°2025-05-09 16:14:50.088Z70.87° E
5 mins2025-05-09 17:48:50.088Z294.331° NW2025-05-09 17:50:50.088Z353.218° N42.505°2025-05-09 17:53:50.088Z94.488° ESE
5 mins2025-05-09 19:27:50.088Z264.747° W2025-05-09 19:29:50.088Z209.649° SW31.032°2025-05-09 19:32:50.088Z144.404° SSE
|